Location: Ellerstadt
(49.4644°N, 8.2615°E)
Time: 20:28:56
(UTC+00:00)

Vanguard 1 - Pass Details

Date: 18 June 2021
Orbit: 651 x 3831 km, 34.2° (Epoch: 29 July)

Event Time Altitude Azimuth Distance (km) Brightness Sun altitude
Rises 21:26:22 0° 236° (SW) 7,967 14.6 -12.2°
Reaches altitude 10° 21:32:21 10° 231° (SW) 6,890 14.2 -12.7°
Maximum altitude 21:52:10 43° 170° (S) 3,852 12.6 -14.0°
Drops below altitude 10° 22:05:16 10° 105° (ESE) 4,681 13.2 -14.8°
Sets 22:08:25 0° 98° (E) 5,319 13.6 -15.0°
